Погода Илыинский

Погода Илыинский : погода сейчас, прогноз погоды и архив. Всё, что Вы хотите узнать о погоде Илыинский!

Хотите узнать прогноз погоды Илыинский? Тогда Вам сюда: Погода Илыинский

Поиск расширенной информации на нашем сайте:

Другие новости

Новости СМИ2

Главная страница сайта

Новости сайта

03.07.2017

Напоминаем, что на нашем специализированном сайте Метеоцентр.Азия вы можете получить высокодетализированные автоматические прогнозы погоды по пунктам России, СНГ и мира в авиационном формате (включающие направление и скорость ветра, видимость, явления погоды, количество и форму облачности, нижнюю и верхнюю границу облачности).

Рекомендуем: Проверенные лично мной дженерики виагры. Доставка виагры в день заказа.

Погода Илыинский - сегодня

Время (UTC), дата Ветер
(°,м/с) 
Видим.   Явления Облачность Т
(°С)
Тd
(°С)
f(%) Тe
(°С)
Pmin
(гПа)
dP
(гПа)
Po
(мм)
O2
(г/м3)
Тmin Tmax R s Состояние
почвы
00 16.02.18 тихо () {03}  20000 м  слаб. ливневой снег  9/9 300 м кучево-дожд. 
[Cb cap]
-13.4 -16.6 77 -13  1007.7  0.7  754  321  -20.6         
09 16.02.18 350 (С) 2-3{07}  10 км    8/8 600 м кучево-дожд. 
[Cb cap]
-11.3 -16.3 66 -13  1007.5  1.1  754  318    -8.8  0.0     
12 16.02.18 030 (СВ) 1{06}  10 км    ясно 
-14.7 -20.1 63 -15  1008.8  1.3  755  323           
15 16.02.18 120 (ЮВ) 2-4{06}  10 км    ясно 
-22.1 -24.6 80 -25  1008.3  -0.6  754  332           
18 16.02.18 110 (В) 1{04}  10 км    ясно 
-22.6 -25.1 80 -23  1007.6  -0.7  754  333           
21 16.02.18 100 (В) 1-2{03}  10 км    ясно 
-25.4 -28.2 77 -26  1007  -0.6  753  337  -25.8      15  неравномерный
сухой снег
100% 
09 17.02.18 030 (СВ) 2-3{07}  10 км    10/0 верхняя 
[Ci fib]
-13.9 -18.8 66 -16  1008.4  2.2  755  322    -8.9       
15 17.02.18 030 (СВ) 4-6{09}  10 км    ясно 
-14.8 -19.7 66 -19  1010.9  0.8  756  324           
21 17.02.18 360 (С) 3-4{06}  10 км    6/3 600 м кучево-дожд., верхняя 
[Cb cap|Ci fib]
-14.5 -19.5 66 -18  1013.3  1.2  758  324  -15.5      15  неравномерный
сухой снег
100% 
00 18.02.18 010 (С) 3-5{05}  20000 м    3/3 600 м кучево-дожд. 
[Cb cap]
-12.3 -18.5 60 -16  1014.7  1.4  759  322  -21.2         
09 18.02.18 040 (СВ) 1-2{06}  10 км    3/3 600 м кучево-дожд. 
[Cb cap]
-13.4 -17.8 69 -13  1015.4  1.5  760  323    -9.4  0.0     
12 18.02.18 100 (В) 1-2{03}  10 км    ясно 
-15.9 -18.2 82 -16  1016.4  761  327           
15 18.02.18 090 (В) 1-2{03}  10 км    ясно 
-15.4 -18.9 75 -15  1015.8  -0.6  760  326           
18 18.02.18 110 (В) 1-3{03}  10 км    ясно 
-22.4 -24.9 80 -23  1015.1  -0.8  759  335           
21 18.02.18 060 (СВ) 1-2{03}  10 км    3/0 средняя 
[Ac trans]
-21.3 -24 79 -22  1013.7  -1.4  758  333  -23.3      15  неравномерный
сухой снег
100% 
00 19.02.18 120 (ЮВ) 1-3{04}  10 км  слаб. ливневой снег  9/9 300 м кучево-дожд. 
[Cb cap]
-15.9 -19.5 74 -16  1013.2  -0.4  758  326           
09 19.02.18 350 (С) 1-3{05}  10 км    10/8 600 м кучево-дожд., верхняя 
[Cb cap|Ci fib]
-11 -16.9 62 -11  1010.1  0.8  756  319    -8.4  0.0     
21 19.02.18 тихо () -2{03}  1000 м  ливневой снег  10/10 300 м кучево-дожд. 
[Cb cap]
-14.6 -16.7 84 -15  1008.8  -0.3  755  323  -18.9    0.4  14  неравномерный
сухой снег
100% 
09 20.02.18 тихо () {03}  10 км  в посл. час ливневой снег  8/8 600 м кучево-дожд. 
[Cb cap]
-14.8 -17.5 80 -15  1008.6  0.9  755  323    -8.1     
15 20.02.18 080 (В) 2-4{06}  10 км  слаб. ливневой снег  9/9 600 м кучево-дожд. 
[Cb cap]
-15.1 -15.2 99 -17  1009.6  0.4  755  324           
21 20.02.18 120 (ЮВ) 1{04}  10 км    10/5 600 м кучево-дожд., верхняя 
[Cb cap|Ci fib]
-21.7 -24.2 80 -22  1010.3  0.6  756  333  -21.9    0.2  17  неравномерный
сухой снег
100% 
00 21.02.18 070 (В) 3-6{06}  20000 м  {ливн. осадки}  10/6 600 м кучево-дожд., верхняя 
[Cb cap|Ci sp]
-12.9 -16.7 73 -16  1010.9  0.7  756  321           
09 21.02.18 030 (СВ) 2-2{04}  10 км  слаб. ливневой снег  10/8 600 м кучево-дожд., верхняя 
[Cb cap|Ci sp]
-11.9 -15.3 76 -14  1012.4  758  320    -7.8  0.0     
21 21.02.18 100 (В) 2-3{04}  10 км    10/3 600 м кучево-дожд., верхняя 
[Cb cap|Ci sp]
-18.5 -21.4 78 -21  1015.6  0.6  760  330  -21.5    0.0  15  неравномерный
сухой снег
100% 
00 22.02.18 тихо () -2{04}  20000 м  {ливн. осадки}  4/1 600 м кучево-дожд., верхняя 
[Cb cap|Ci fib]
-14.9 -19.4 69 -15  1016.7  1.1  761  326           
Время (UTC), дата Ветер
(°,м/с) 
Видим.   Явления Облачность Т
(°С)
Тd
(°С)
f(%) Тe
(°С)
Pmin
(гПа)
dP
(гПа)
Po
(мм)
O2
(г/м3)
Тmin Tmax R s Состояние
почвы

Для получения пояснительной информации подведите курсор к названию столбца.

ПОГОДА Илыинский - архив

Всё, что Вы хотите узнать о погоде Илыинский - удобно и подробно!

Выберите нужную дату (начиная с 1 января 2015* года) и нажмите кнопку "Найти".
Будут отображены архивные сводки погоды по пункту Илыинский, начиная с указанной даты.


Отображать данные в формате CSV (для использования в таблицах Excel)


Внимание! Наш архив погоды предназначен исключительно для личного некоммерческого использования в познавательных целях. Если Вам необходимы официальные справки о состоянии погоды (для производственных, юридических, коммерческих и т.п. целей), обращайтесь в органы Росгидромета.

*Примечание: данная дата относится к архиву по метеостанциям СССР (Россия, СНГ, Балтия).
Архив по метеостанциям Зарубежной Европы и Азии (кроме Китая) хранится 10 дней, по другим регионам земного шара (Китай, Африка, Америка, Австралия, Океания) - 1 день.

Илыинский - район местоположения метеостанции


Название, широта, долгота, высота метеостанции:
Илыинский 48°ш. 142.2°д. 18 м над ур. моря [Российская Федерация]

Дополнительная информация

В oтличие oт бoльшинства пoгoдных сайтoв мы публикуем пoдрoбную метеoинфoрмацию в детальнoм прoфессиoнальнoм фoрмате.

Характеристики температуры и влажнoсти вoздуха измеряются на высoте 2 м в тени вдали oт зданий и деревьев.
Скoрoсть ветра измеряется на высoте 10 м (на урoвне рoста челoвека скoрoсть ветра ниже в 1.5-2 раза). Если метеoстанция нахoдится в гoрoде или в лесу, тo скoрoсть ветра занижена на 2-4 м/с пo сравнению с oткрытым местoм. Скoрoсть ветра над акватoриями крупных рек и oзёр, а также на вершинах хoлмoв на 2-5 м/с выше, чем в oбычных услoвиях.
Атмoсфернoе давление в разных тoчках местнoсти мoжет значительнo oтличаться oт давления на метеoстанции, в зависимoсти oт услoвий рельефа (при пoдъёме на 10 м давление пoнижается примернo на 1 мм рт.ст.).